Regional Weather Roundup
Issued by NWS Goodland, KS

Home | Current Version | Previous Version | Text Only | Print | Product List | Glossary On
Versions: 1 2 3 4 5 6 7 8 9 10 11 12 13 14 15 16 17 18 19 20 21 22 23 24 25 26 27 28 29 30 31 32 33 34 35 36 37 38 39 40 41 42 43 44 45 46 47 48 49 50
000
ASUS43 KGLD 271108
RWRGLD

GOODLAND FORECAST AREA HOURLY WEATHER ROUNDUP
NATIONAL WEATHER SERVICE GOODLAND KS
500 AM MDT WED AUG 27 2014

...OFFICIAL OBSERVATIONS...

CITY           SKY/WX    TMP DP  RH WIND       PRES   REMARKS
GOODLAND KS    CLOUDY    64  63  96 E6        30.15R
HILL CITY KS   CLOUDY    69  66  90 CALM      30.11F
IMPERIAL NEB   MOCLDY    64  62  93 CALM      30.11F
MCCOOK NEB     CLOUDY    66  65  96 SE7       30.10S
AKRON CO       PTCLDY    62  58  86 S7        30.14F
BURLINGTON CO  PTCLDY    60  59  96 S6        30.15S
LIMON CO       CLOUDY    58  57  97 SE7       30.18F
$$

...UNOFFICIAL OBSERVATIONS...

CITY           SKY/WX    TMP DP  RH WIND       PRES   REMARKS
COLBY KS       MOCLDY    64  64 100 SE5       30.15R
GOVE KS          N/A     68  32  26 CALM        N/A
NORTON KS      CLEAR     68  64  88 CALM      30.10S
SHARON SPRINGS   N/A     64  62  95 S7          N/A
WAKEENEY KS      N/A     69  66  89 MISG        N/A
KIT CARSON CO    N/A     62  59  91 MISG        N/A
YUMA CO          N/A     61  58  90 SE5         N/A
$$



USA.gov is the U.S. government's official web portal to all federal, state and local government web resources and services.